| time (UTC) | temp C | wind direction | speed KPH | gust KPH | rain 1hr cm | rain 24hr cm | rain mn cm | humidity % | barometer mb |
| 20260503030030 | 8 | 24 | 0.0 | 3.2 | 0.00 | 0.00 | 0.00 | 69 | 1006.5 |
| 20260503024532 | 8 | 24 | 0.0 | 0.0 | 0.00 | 0.00 | 0.00 | 68 | 1006.7 |
| 20260503023024 | 8 | 24 | 0.0 | 1.6 | 0.00 | 0.00 | 0.00 | 67 | 1006.8 |
| 20260503021522 | 8 | 24 | 0.0 | 0.0 | 0.00 | 0.00 | 0.00 | 65 | 1006.9 |
| 20260503020022 | 8 | 24 | 0.0 | 0.0 | 0.00 | 0.00 | 0.00 | 65 | 1006.9 |
| 20260503014520 | 8 | 24 | 0.0 | 0.0 | 0.00 | 0.00 | 0.00 | 64 | 1007.2 |
| 20260503013029 | 8 | 24 | 0.0 | 0.0 | 0.00 | 0.00 | 0.00 | 62 | 1007.2 |
| 20260503011514 | 8 | 24 | 0.0 | 0.0 | 0.00 | 0.00 | 0.00 | 62 | 1007.3 |
| 20260503010014 | 9 | 24 | 0.0 | 1.6 | 0.00 | 0.00 | 0.00 | 63 | 1007.4 |
| 20260503004512 | 10 | 24 | 1.6 | 4.8 | 0.00 | 0.00 | 0.00 | 65 | 1007.6 |
| 20260503003014 | 10 | 24 | 0.0 | 1.6 | 0.00 | 0.00 | 0.00 | 63 | 1007.6 |
| 20260503001509 | 10 | 25 | 0.0 | 4.8 | 0.00 | 0.00 | 0.00 | 65 | 1007.7 |
| 20260503000005 | 10 | 12 | 0.0 | 4.8 | 0.00 | 0.00 | 0.00 | 66 | 1008.0 |
| 20260502234504 | 10 | 15 | 0.0 | 3.2 | 0.00 | 0.00 | 0.00 | 68 | 1008.1 |
| 20260502233003 | 11 | 15 | 0.0 | 4.8 | 0.00 | 0.00 | 0.00 | 64 | 1008.2 |
| 20260502231502 | 12 | 17 | 0.0 | 4.8 | 0.00 | 0.00 | 0.00 | 62 | 1008.3 |
| 20260502230002 | 13 | 17 | 0.0 | 4.8 | 0.00 | 0.00 | 0.00 | 54 | 1008.4 |
| 20260502224558 | 14 | 17 | 0.0 | 4.8 | 0.00 | 0.00 | 0.00 | 53 | 1008.6 |
| 20260502223103 | 14 | 17 | 1.6 | 6.4 | 0.00 | 0.00 | 0.00 | 48 | 1008.8 |
| 20260502221554 | 15 | 15 | 1.6 | 8.0 | 0.00 | 0.00 | 0.00 | 40 | 1009.1 |
| 20260502220100 | 15 | 26 | 1.6 | 6.4 | 0.00 | 0.00 | 0.00 | 38 | 1009.2 |
| 20260502214551 | 15 | 37 | 1.6 | 6.4 | 0.00 | 0.00 | 0.00 | 37 | 1009.4 |
| 20260502213051 | 15 | 19 | 1.6 | 9.7 | 0.00 | 0.00 | 0.00 | 36 | 1009.6 |
| 20260502211547 | 15 | 42 | 1.6 | 9.7 | 0.00 | 0.00 | 0.00 | 36 | 1009.8 |
| 20260502210049 | 16 | 16 | 3.2 | 9.7 | 0.00 | 0.00 | 0.00 | 36 | 1010.1 |
| 20260502204543 | 16 | 28 | 3.2 | 9.7 | 0.00 | 0.00 | 0.00 | 37 | 1010.3 |
| 20260502203049 | 15 | 355 | 1.6 | 8.0 | 0.00 | 0.00 | 0.00 | 38 | 1010.4 |
| 20260502201540 | 15 | 76 | 4.8 | 12.9 | 0.00 | 0.00 | 0.00 | 38 | 1010.8 |
| 20260502200037 | 15 | 80 | 3.2 | 6.4 | 0.00 | 0.00 | 0.00 | 36 | 1011.0 |
| 20260502194534 | 15 | 27 | 4.8 | 12.9 | 0.00 | 0.00 | 0.00 | 39 | 1011.3 |
| 20260502193030 | 15 | 46 | 1.6 | 8.0 | 0.00 | 0.00 | 0.00 | 37 | 1011.7 |
| 20260502191534 | 15 | 34 | 1.6 | 8.0 | 0.00 | 0.00 | 0.00 | 36 | 1011.9 |
| 20260502190026 | 15 | 25 | 3.2 | 8.0 | 0.00 | 0.00 | 0.00 | 36 | 1012.2 |
| 20260502184525 | 14 | 30 | 3.2 | 8.0 | 0.00 | 0.00 | 0.00 | 36 | 1012.4 |
| 20260502183027 | 15 | 34 | 0.0 | 8.0 | 0.00 | 0.00 | 0.00 | 39 | 1012.8 |
| 20260502181522 | 15 | 39 | 1.6 | 9.7 | 0.00 | 0.00 | 0.00 | 37 | 1013.0 |
| 20260502163003 | 13 | 38 | 3.2 | 8.0 | 0.00 | 0.00 | 0.00 | 32 | 1014.6 |
| 20260502161558 | 13 | 13 | 0.0 | 6.4 | 0.00 | 0.00 | 0.00 | 34 | 1014.8 |
| 20260502151608 | 12 | 242 | 0.0 | 8.0 | 0.00 | 0.00 | 0.00 | 39 | 1015.5 |
| 20260502123001 | 1 | 94 | 0.0 | 0.0 | 0.00 | 0.00 | 0.00 | 87 | 1016.9 |
| 20260502121559 | 0 | 94 | 0.0 | 0.0 | 0.00 | 0.00 | 0.00 | 91 | 1016.9 |
| 20260502114531 | -2 | 94 | 0.0 | 0.0 | 0.00 | 0.00 | 0.00 | 91 | 1016.9 |
| 20260502113034 | -2 | 94 | 0.0 | 0.0 | 0.00 | 0.00 | 0.00 | 89 | 1016.8 |
| 20260502111530 | -2 | 94 | 0.0 | 0.0 | 0.00 | 0.00 | 0.00 | 89 | 1016.8 |
| 20260502110032 | -2 | 94 | 0.0 | 0.0 | 0.00 | 0.00 | 0.00 | 89 | 1016.7 |
| 20260502104533 | -2 | 94 | 0.0 | 0.0 | 0.00 | 0.00 | 0.00 | 88 | 1016.8 |
| 20260502103026 | -2 | 94 | 0.0 | 0.0 | 0.00 | 0.00 | 0.00 | 88 | 1016.8 |
| 20260502101526 | -2 | 94 | 0.0 | 0.0 | 0.00 | 0.00 | 0.00 | 88 | 1016.8 |
| 20260502091518 | -1 | 94 | 0.0 | 0.0 | 0.00 | 0.00 | 0.00 | 86 | 1016.8 |
| 20260502071503 | -1 | 94 | 0.0 | 0.0 | 0.00 | 0.00 | 0.00 | 84 | 1017.1 |
| 20260502070005 | -1 | 94 | 0.0 | 0.0 | 0.00 | 0.00 | 0.00 | 84 | 1017.3 |
| 20260502064602 | 0 | 94 | 0.0 | 0.0 | 0.00 | 0.00 | 0.00 | 83 | 1017.3 |
| 20260502063113 | 0 | 94 | 0.0 | 0.0 | 0.00 | 0.00 | 0.00 | 82 | 1017.4 |
| 20260502061554 | 0 | 94 | 0.0 | 0.0 | 0.00 | 0.00 | 0.00 | 81 | 1017.3 |
| 20260502060056 | 0 | 94 | 0.0 | 1.6 | 0.00 | 0.00 | 0.00 | 81 | 1017.4 |
| 20260502054601 | 0 | 94 | 0.0 | 0.0 | 0.00 | 0.00 | 0.00 | 80 | 1017.4 |
| 20260502053051 | 0 | 94 | 0.0 | 0.0 | 0.00 | 0.00 | 0.00 | 79 | 1017.5 |
| 20260502051548 | 0 | 94 | 0.0 | 0.0 | 0.00 | 0.00 | 0.00 | 78 | 1017.4 |
| 20260502050050 | 1 | 94 | 0.0 | 0.0 | 0.00 | 0.00 | 0.00 | 77 | 1017.4 |
| 20260502044543 | 1 | 94 | 0.0 | 0.0 | 0.00 | 0.00 | 0.00 | 77 | 1017.3 |
| 20260502043053 | 1 | 94 | 0.0 | 0.0 | 0.00 | 0.00 | 0.00 | 75 | 1017.4 |
| 20260502041608 | 2 | 94 | 0.0 | 0.0 | 0.00 | 0.00 | 0.00 | 74 | 1017.3 |
| 20260502040051 | 2 | 94 | 0.0 | 0.0 | 0.00 | 0.00 | 0.00 | 72 | 1017.4 |
| 20260502034545 | 2 | 94 | 0.0 | 0.0 | 0.00 | 0.00 | 0.00 | 72 | 1017.4 |
| 20260502033041 | 3 | 94 | 0.0 | 0.0 | 0.00 | 0.00 | 0.00 | 69 | 1017.4 |
| 20260502031540 | 3 | 94 | 0.0 | 0.0 | 0.00 | 0.00 | 0.00 | 68 | 1017.4 |